User: anonymous   Login
Location: Unspecified
(0.0000°N, 0.0000°E)
Time: 07:46:51
(UTC+00:00)
Language:

TBA - TO BE ASSIGNED - Orbit

View from above orbital plane
View from above orbital plane
View from above satellite
View from above satellite

Ground track
Ground track

The orbit is defined by the following mean orbital elements,

1 68994U          26145.66025556 +.00000000 +00000-0 +37842-3 0 00009
2 68994  97.7356  43.5540 0002597  63.4103 296.7382 14.92390990    09
Epoch (UTC): 25 May 2026 15:50:46
Eccentricity: 0.0002597
inclination: 97.7356°
perigee height: 589 km
apogee height: 592 km
right ascension of ascending node: 43.5540°
argument of perigee: 63.4103°
revolutions per day: 14.92390990
mean anomaly at epoch: 296.7382°

The dashed part of the orbit path shows where the satellite is in the earth's shadow,  

DLR